* Astronomy

Members Login
Post Info TOPIC: Comet C/2010 V1 (IKEYA-MURAKAMI)


L

Posts: 128728
Date:
Comet C/2010 V1 (IKEYA-MURAKAMI)
Permalink  
 


Orbital elements:
C/2010 V1 (Ikeya-Murakami)
T 2010 Oct. 18.817 TT MPC
q 1.71541 (2000.0) P Q
Peri. 155.076 -0.944539 -0.328019
Node 5.844 +0.269313 -0.801191
e 1.0 Incl. 8.913 +0.187925 -0.500497
From 50 observations 2010 Nov. 3-4.

MPEC 2010 - V46


__________________
«First  <  1 2 3 | Page of 3  sorted by
Quick Reply

Please log in to post quick replies.



Create your own FREE Forum
Report Abuse
Powered by ActiveBoard